Find Starlink 34941

NORAD ID: 65210 Int'l Des: 2025-176 Owner: SPXS Country: US Constellation: starlink operational
LEOCIRCULAR

实时位置

正在加载3D地球...

关于 Starlink 34941

正在加载描述...

即将过境

Passes for default location (London). Set your location on the main map for personalized predictions.

高度历史

Loading altitude history...

两行轨道根数

1 65210U 25176N 26103.96299203 .00007089 00000-0 25128-3 0 9992
2 65210 53.1604 348.6983 0000374 309.3655 50.7312 15.30193257 38523
Epoch: Apr 13, 2026 • Age: 25 hours

当前状态

高度 485.5 km
速度 7.62 km/s
星下点 -33.52°S, 111.09°E
发射日期 Aug 14, 2025
运行时间 0.6 years
类型 internet

技术详情

分类 Payload
质量 575.00 kg
干质量 530.00 kg
总质量 575.00 kg
长度 0.30 m
直径 4.10 m
跨度 29.00 m
形状 Box + pan
制造商 SPXS
平台类型 Starlink V2MO
阶段状态 In Orbit
所有者/国家 SPXS/US

Most Searched